Location: Larrial
(48.2758°N, 4.5331°W)
Time: 23:53:24
(UTC+00:00)

BREEZE-M DEB (TANK) - Pass Details

Date: 09 April 2020
Orbit: 270 x 13102 km, 49.6° (Epoch: 03 June)

Event Time Altitude Azimuth Distance (km) Brightness Sun altitude
Rises 21:31:05 0° 276° (W) 2,909 6.8 -22.6°
Reaches altitude 10° 21:33:55 10° 280° (W) 1,440 5.2 -23.0°
Enters shadow 21:35:13 22° 287° (WNW) 778 3.7 -23.1°
